Lebanon, NH

5:10 AM EDT on July 25, 2017 (GMT -0400)
Lebanon Municipal

Weather History for KLEB - April, 2013

Change the Weather History Date:

Sunday, April 28, 2013

  Actual Average Record
Temperature  
Mean Temperature 51 °F -  
Max Temperature 73 °F 64 °F 93 °F (1990)
Min Temperature 30 °F 35 °F 23 °F (2016)
Degree Days  
Heating Degree Days 14    
Growing Degree Days 1 (Base 50)    
Moisture  
Dew Point 30 °F    
Average Humidity 48    
Maximum Humidity 85    
Minimum Humidity 20    
Precipitation  
Precipitation 0.00 in - - ()
Sea Level Pressure  
Sea Level Pressure 30.24 in    
Wind  
Wind Speed 2 mph (SW)    
Max Wind Speed 13 mph    
Max Gust Speed 20 mph    
Visibility 10 miles    
Events      
Averages and records for this station are not official NWS values.
T = Trace of Precipitation, MM = Missing Value Source: NWS Daily Summary

Daily Weather History Graph

Daily Weather History Graph

Search for Another Location

Airport or City:

Trip Planner

Search our weather history database for the weather conditions in past years. The results will help you decide how hot, cold, wet, or windy it might be!

Date:

Astronomy

Apr. 28, 2013 Rise Set
Actual Time 5:45 AM EDT 7:48 PM EDT
Civil Twilight 5:14 AM EDT 8:19 PM EDT
Nautical Twilight 4:36 AM EDT 8:57 PM EDT
Astronomical Twilight 3:54 AM EDT 9:40 PM EDT
Moon 11:19 PM EDT (4/28) 7:55 AM EDT (4/28)
Length of Visible Light 15h 05m
Length of Day
14h 02m
Waning Gibbous, 89% of the Moon is Illuminated
Apr 28
Waning Gibbous
May 2
Last Quarter
May 9
New
May 18
First Quarter
May 25
Full

Hourly Weather History & Observations

Time (EDT) Temp. Dew Point Humidity Pressure Visibility Wind Dir Wind Speed Gust Speed Precip Events Conditions
12:53 AM 36.0 °F 28.0 °F 73% 30.32 in 10.0 mi Calm Calm - N/A   Clear
1:53 AM 34.0 °F 28.0 °F 79% 30.32 in 10.0 mi Calm Calm - N/A   Clear
2:53 AM 33.1 °F 27.0 °F 78% 30.31 in 10.0 mi Calm Calm - N/A   Clear
3:53 AM 30.9 °F 27.0 °F 85% 30.31 in 10.0 mi Calm Calm - N/A   Clear
4:53 AM 30.9 °F 26.1 °F 82% 30.31 in 10.0 mi Calm Calm - N/A   Clear
5:53 AM 30.9 °F 25.0 °F 79% 30.31 in 10.0 mi Calm Calm - N/A   Clear
6:53 AM 33.1 °F 28.9 °F 85% 30.32 in 10.0 mi Calm Calm - N/A   Clear
7:53 AM 39.9 °F 30.9 °F 70% 30.35 in 10.0 mi Calm Calm - N/A   Clear
9:53 AM 52.0 °F 30.9 °F 45% 30.33 in 10.0 mi Calm Calm - N/A   Clear
10:53 AM 57.9 °F 30.9 °F 36% 30.30 in 10.0 mi Calm Calm - N/A   Clear
11:53 AM 64.9 °F 30.0 °F 27% 30.27 in 10.0 mi WNW 5.8 mph - N/A   Clear
12:53 PM 66.9 °F 30.0 °F 25% 30.25 in 10.0 mi West 4.6 mph - N/A   Clear
1:53 PM 68.0 °F 30.0 °F 24% 30.22 in 10.0 mi South 5.8 mph 17.3 mph N/A   Clear
2:53 PM 71.1 °F 30.0 °F 22% 30.19 in 10.0 mi SSW 11.5 mph 16.1 mph N/A   Clear
3:53 PM 72.0 °F 28.9 °F 20% 30.17 in 10.0 mi Variable 5.8 mph - N/A   Clear
4:53 PM 72.0 °F 28.9 °F 20% 30.15 in 10.0 mi West 8.1 mph - N/A   Clear
5:53 PM 71.1 °F 28.0 °F 20% 30.14 in 10.0 mi WSW 8.1 mph - N/A   Clear
6:53 PM 69.1 °F 30.0 °F 23% 30.14 in 10.0 mi South 9.2 mph - N/A   Clear
7:53 PM 64.9 °F 33.1 °F 31% 30.13 in 10.0 mi SSE 12.7 mph 19.6 mph N/A   Clear
8:53 PM 61.0 °F 33.1 °F 35% 30.16 in 10.0 mi Variable 6.9 mph - N/A   Clear
9:53 PM 55.9 °F 34.0 °F 44% 30.19 in 10.0 mi Calm Calm - N/A   Clear
10:53 PM 55.0 °F 35.1 °F 47% 30.19 in 10.0 mi Calm Calm - N/A   Clear
11:53 PM 48.0 °F 36.0 °F 63% 30.19 in 10.0 mi Calm Calm - N/A   Clear